FW0880 Weather Reports


time (UTC)temp
C
wind
direction
speed
KPH
gust
KPH
rain 1hr
cm
rain 24hr
cm
rain mn
cm
humidity
%
barometer
mb
20200229104009 20 23 0.0 3.2 0.00 0.00 0.00 92 1013.4
20200229103509 20 23 0.0 3.2 0.00 0.00 0.00 92 1013.4
20200229103010 20 23 0.0 3.2 0.00 0.00 0.00 92 1013.5
20200229102507 20 23 1.6 3.2 0.00 0.00 0.00 93 1013.4
20200229102020 20 23 0.0 3.2 0.00 0.00 0.00 93 1013.4
20200229101510 20 23 0.0 3.2 0.00 0.00 0.00 93 1013.5
20200229101005 20 23 1.6 3.2 0.00 0.00 0.00 94 1013.5
20200229100504 20 23 0.0 1.6 0.00 0.00 0.00 94 1013.5
20200229100014 20 23 0.0 3.2 0.00 0.00 0.00 94 1013.5
20200229095510 20 23 0.0 3.2 0.00 0.00 0.00 94 1013.5
20200229095004 20 23 1.6 3.2 0.00 0.00 0.00 94 1013.5
20200229094501 20 9 0.0 1.6 0.00 0.00 0.00 94 1013.6
20200229094000 20 9 0.0 3.2 0.00 0.00 0.00 94 1013.7
20200229093624 20 9 0.0 3.2 0.00 0.00 0.00 94 1013.7
20200229093215 20 9 0.0 3.2 0.00 0.00 0.00 93 1013.8
20200229092604 20 9 0.0 3.2 0.00 0.00 0.00 92 1013.9
20200229092058 20 9 0.0 3.2 0.00 0.00 0.00 92 1014.1
20200229091607 21 9 0.0 3.2 0.00 0.00 0.00 92 1014.1
20200229091057 21 9 1.6 3.2 0.00 0.00 0.00 92 1014.0
20200229090557 21 9 0.0 3.2 0.00 0.00 0.00 92 1014.1
20200229090125 20 9 0.0 1.6 0.00 0.00 0.00 92 1014.0
20200229085556 20 9 0.0 0.0 0.00 0.00 0.00 92 1014.1
20200229085059 20 9 0.0 1.6 0.00 0.00 0.00 92 1014.2
20200229084756 20 9 0.0 1.6 0.00 0.00 0.00 92 1014.2
20200229084110 21 9 0.0 3.2 0.00 0.00 0.00 92 1014.4
20200229083553 21 9 1.6 3.2 0.00 0.00 0.00 92 1014.4
20200229083137 21 9 0.0 4.8 0.00 0.00 0.00 91 1014.4
20200229082555 21 360 1.6 4.8 0.00 0.00 0.00 91 1014.6
20200229082056 21 5 0.0 4.8 0.00 0.00 0.00 91 1014.7
20200229081629 21 43 1.6 3.2 0.00 0.00 0.00 91 1014.7
20200229081049 21 43 1.6 3.2 0.00 0.00 0.00 90 1014.8
20200229080604 21 43 0.0 4.8 0.00 0.00 0.00 91 1015.0
20200229080143 21 43 0.0 4.8 0.00 0.00 0.00 91 1015.0
20200229075545 21 108 0.0 3.2 0.00 0.00 0.00 91 1015.0
20200229075045 21 108 0.0 3.2 0.00 0.00 0.00 90 1015.1
20200229074613 21 108 0.0 3.2 0.00 0.00 0.00 90 1015.1
20200229074049 21 108 0.0 3.2 0.00 0.00 0.00 90 1015.1
20200229073543 21 108 0.0 3.2 0.00 0.00 0.00 90 1015.2
20200229073111 21 108 0.0 3.2 0.00 0.00 0.00 89 1015.2
20200229072541 21 108 1.6 3.2 0.00 0.00 0.00 89 1015.3
20200229072040 21 108 0.0 3.2 0.00 0.00 0.00 88 1015.3
20200229071641 21 108 0.0 3.2 0.00 0.00 0.00 88 1015.3
20200229071039 21 108 0.0 3.2 0.00 0.00 0.00 87 1015.5
20200229070539 21 108 0.0 1.6 0.00 0.00 0.00 87 1015.5
20200229070106 21 108 0.0 1.6 0.00 0.00 0.00 87 1015.6
20200229065536 21 108 0.0 1.6 0.00 0.00 0.00 87 1015.7
20200229065035 21 108 0.0 1.6 0.00 0.00 0.00 87 1015.7
20200229064557 21 108 0.0 1.6 0.00 0.00 0.00 87 1015.8
20200229064034 21 108 0.0 3.2 0.00 0.00 0.00 87 1015.8
20200229063551 21 108 0.0 3.2 0.00 0.00 0.00 87 1015.8
20200229063132 21 108 1.6 4.8 0.00 0.00 0.00 87 1016.0
20200229062535 21 108 0.0 4.8 0.00 0.00 0.00 87 1016.0
20200229062032 22 108 0.0 3.2 0.00 0.00 0.00 87 1016.1
20200229061547 22 108 0.0 3.2 0.00 0.00 0.00 86 1016.1
20200229061031 22 108 0.0 3.2 0.00 0.00 0.00 86 1016.1
20200229060529 22 108 0.0 3.2 0.00 0.00 0.00 86 1016.2
20200229060053 22 108 0.0 3.2 0.00 0.00 0.00 87 1016.1
20200229055532 22 108 0.0 3.2 0.00 0.00 0.00 88 1016.2
20200229055040 22 108 1.6 3.2 0.00 0.00 0.00 88 1016.2
20200229054631 22 108 0.0 1.6 0.00 0.00 0.00 87 1016.2
20200229054044 22 108 0.0 1.6 0.00 0.00 0.00 87 1016.2
20200229053531 22 108 0.0 3.2 0.00 0.00 0.00 87 1016.1
20200229053104 22 108 0.0 3.2 0.00 0.00 0.00 87 1016.0
20200229052525 22 108 1.6 4.8 0.00 0.00 0.00 86 1016.0
20200229052028 22 108 1.6 4.8 0.00 0.00 0.00 86 1015.9
20200229051618 22 108 1.6 3.2 0.00 0.00 0.00 85 1015.9
20200229051029 22 108 0.0 1.6 0.00 0.00 0.00 86 1015.8
20200229050524 22 108 0.0 0.0 0.00 0.00 0.00 86 1015.8
20200229050100 22 108 0.0 0.0 0.00 0.00 0.00 86 1015.7
20200229045535 22 108 0.0 1.6 0.00 0.00 0.00 86 1015.7
20200229045023 22 108 0.0 1.6 0.00 0.00 0.00 87 1015.6
20200229044544 22 108 0.0 3.2 0.00 0.00 0.00 87 1015.5
20200229044023 22 108 0.0 3.2 0.00 0.00 0.00 88 1015.4
20200229043524 22 108 0.0 1.6 0.00 0.00 0.00 88 1015.4
20200229043037 22 108 0.0 1.6 0.00 0.00 0.00 88 1015.3
20200229042513 22 108 0.0 3.2 0.00 0.00 0.00 89 1015.3
20200229042019 22 108 0.0 3.2 0.00 0.00 0.00 89 1015.2
20200229041527 22 108 0.0 3.2 0.00 0.00 0.00 88 1015.1
20200229041004 22 108 0.0 3.2 0.00 0.00 0.00 88 1015.0
20200229040509 22 108 0.0 4.8 0.00 0.00 0.00 88 1014.9
20200229040014 22 98 0.0 6.4 0.00 0.00 0.00 87 1015.0
20200229035515 23 82 1.6 6.4 0.00 0.00 0.00 86 1014.9
20200229035018 23 76 1.6 3.2 0.00 0.00 0.00 87 1014.9
20200229034522 23 35 0.0 3.2 0.00 0.00 0.00 87 1014.9
20200229034008 23 35 0.0 4.8 0.00 0.00 0.00 87 1014.8
20200229033528 23 35 1.6 4.8 0.00 0.00 0.00 88 1014.7
20200229033042 23 148 0.0 3.2 0.00 0.00 0.00 87 1014.7
20200229032519 23 148 0.0 3.2 0.00 0.00 0.00 87 1014.7
20200229032009 23 148 0.0 4.8 0.00 0.00 0.00 87 1014.6
20200229031511 23 148 0.0 4.8 0.00 0.00 0.00 87 1014.7
20200229031024 23 220 1.6 4.8 0.00 0.00 0.00 87 1014.7
20200229030519 23 232 3.2 4.8 0.00 0.00 0.00 87 1014.7
20200229030038 23 148 0.0 8.0 0.00 0.00 0.00 86 1014.7
20200229025541 23 148 1.6 8.0 0.00 0.00 0.00 86 1014.7
20200229024504 23 176 3.2 4.8 0.00 0.00 0.00 85 1014.5
20200229024014 23 177 0.0 3.2 0.00 0.00 0.00 85 1014.5
20200229023513 23 177 0.0 4.8 0.00 0.00 0.00 85 1014.3
20200229023055 23 177 1.6 4.8 0.00 0.00 0.00 85 1014.3
20200229022527 23 329 0.0 1.6 0.00 0.00 0.00 85 1014.2
20200229022005 23 329 0.0 1.6 0.00 0.00 0.00 85 1014.1
20200229021510 23 329 0.0 4.8 0.00 0.00 0.00 85 1014.0
20200229021016 23 329 1.6 4.8 0.00 0.00 0.00 85 1013.8
20200229020516 23 329 0.0 4.8 0.00 0.00 0.00 85 1013.7
20200229020005 23 329 1.6 4.8 0.00 0.00 0.00 85 1013.7
20200229015503 23 329 1.6 4.8 0.00 0.00 0.00 84 1013.6
20200229015009 23 288 1.6 4.8 0.00 0.00 0.00 85 1013.6
20200229014520 23 213 0.0 4.8 0.00 0.00 0.00 84 1013.6
20200229014022 23 213 0.0 3.2 0.00 0.00 0.00 84 1013.5
20200229013522 23 213 0.0 6.4 0.00 0.00 0.00 85 1013.4
20200229013027 23 213 3.2 6.4 0.00 0.00 0.00 85 1013.4
20200229012523 23 212 0.0 6.4 0.00 0.00 0.00 84 1013.4
20200229011507 24 196 3.2 6.4 0.00 0.00 0.00 84 1013.4
20200229011014 24 192 3.2 8.0 0.00 0.00 0.00 84 1013.4
20200229010518 24 195 3.2 8.0 0.00 0.00 0.00 83 1013.4
20200229010043 24 221 1.6 8.0 0.00 0.00 0.00 84 1013.5
20200229005522 24 215 3.2 9.7 0.00 0.00 0.00 84 1013.4
20200229005008 24 177 4.8 11.3 0.00 0.00 0.00 83 1013.5
20200229004021 24 212 6.4 11.3 0.00 0.00 0.00 83 1013.5
20200228194008 25 238 12.9 20.9 0.00 0.00 0.00 80 1014.1
20200228191033 25 216 12.9 19.3 0.00 0.00 0.00 78 1014.3
20200228190525 25 190 11.3 19.3 0.00 0.00 0.00 78 1014.4
20200228190036 26 187 11.3 16.1 0.00 0.00 0.00 78 1014.5
20200228185510 26 207 11.3 16.1 0.00 0.00 0.00 78 1014.6
20200228185012 25 205 11.3 16.1 0.00 0.00 0.00 78 1014.5
20200228184541 26 243 11.3 16.1 0.00 0.00 0.00 77 1014.6
20200228184020 26 226 8.0 16.1 0.00 0.00 0.00 77 1014.7
20200228183517 25 205 8.0 14.5 0.00 0.00 0.00 77 1014.7
20200228183037 25 267 8.0 16.1 0.00 0.00 0.00 79 1014.7
20200228182543 25 229 9.7 16.1 0.00 0.00 0.00 80 1014.7
20200228182028 25 211 8.0 14.5 0.00 0.00 0.00 81 1014.7
20200228181537 25 231 6.4 12.9 0.00 0.00 0.00 82 1014.8
20200228181012 25 257 6.4 14.5 0.00 0.00 0.00 81 1014.9
20200228180511 25 263 6.4 16.1 0.00 0.00 0.00 81 1014.9
20200228180018 25 269 6.4 16.1 0.00 0.00 0.00 80 1014.9
20200228175514 25 288 4.8 12.9 0.00 0.00 0.00 79 1015.0
20200228175018 25 243 6.4 12.9 0.00 0.00 0.00 78 1015.1
20200228174547 25 230 8.0 12.9 0.00 0.00 0.00 78 1015.1
20200228174010 25 252 4.8 11.3 0.00 0.00 0.00 81 1015.2
20200228173504 25 223 4.8 11.3 0.00 0.00 0.00 80 1015.2
20200228173018 25 237 4.8 9.7 0.00 0.00 0.00 79 1015.3
20200228172509 25 204 3.2 9.7 0.00 0.00 0.00 81 1015.3
20200228172013 25 263 4.8 12.9 0.00 0.00 0.00 82 1015.4
20200228171558 25 240 6.4 12.9 0.00 0.00 0.00 81 1015.5
20200228171022 25 288 4.8 12.9 0.00 0.00 0.00 82 1015.6
20200228170533 25 294 3.2 12.9 0.00 0.00 0.00 82 1015.6
20200228170034 24 239 3.2 12.9 0.00 0.00 0.00 85 1015.7
20200228165518 23 205 6.4 12.9 0.00 0.00 0.00 84 1015.7
20200228165011 24 254 4.8 11.3 0.00 0.00 0.00 83 1015.8
20200228164520 24 176 6.4 11.3 0.00 0.00 0.00 83 1015.8
20200228164020 24 219 6.4 9.7 0.00 0.00 0.00 83 1015.8
20200228163515 24 213 3.2 11.3 0.00 0.00 0.00 83 1015.7
20200228163058 24 250 3.2 6.4 0.00 0.00 0.00 82 1015.7
20200228162521 23 236 1.6 6.4 0.00 0.00 0.00 84 1015.7
20200228162023 23 235 1.6 11.3 0.00 0.00 0.00 83 1015.6
20200228161543 23 301 4.8 11.3 0.00 0.00 0.00 83 1015.7
20200228161007 23 242 4.8 8.0 0.00 0.00 0.00 84 1015.7
20200228160507 23 216 1.6 8.0 0.00 0.00 0.00 84 1015.6
20200228160018 23 213 3.2 8.0 0.00 0.00 0.00 84 1015.5
20200228155514 23 245 3.2 8.0 0.00 0.00 0.00 84 1015.5
20200228155018 23 234 3.2 6.4 0.00 0.00 0.00 83 1015.4
20200228154523 23 254 1.6 4.8 0.00 0.00 0.00 84 1015.4
20200228154036 23 289 1.6 4.8 0.00 0.00 0.00 84 1015.4
20200228153520 23 360 1.6 3.2 0.00 0.00 0.00 84 1015.3
20200228153033 22 360 0.0 6.4 0.00 0.00 0.00 85 1015.3
20200228152505 22 316 1.6 4.8 0.00 0.00 0.00 85 1015.3
20200228152012 22 329 1.6 4.8 0.00 0.00 0.00 86 1015.2
20200228151509 22 355 0.0 4.8 0.00 0.00 0.00 87 1015.1
20200228151013 22 38 0.0 4.8 0.00 0.00 0.00 86 1014.9
20200228150512 22 35 0.0 3.2 0.00 0.00 0.00 85 1014.9
20200228150034 22 5 0.0 3.2 0.00 0.00 0.00 86 1014.9
20200228145525 21 85 0.0 3.2 0.00 0.00 0.00 87 1014.8
20200228145027 21 25 0.0 3.2 0.00 0.00 0.00 88 1014.7
20200228144555 21 25 0.0 3.2 0.00 0.00 0.00 88 1014.7
20200228144008 21 25 0.0 3.2 0.00 0.00 0.00 89 1014.7
20200228143506 21 25 0.0 3.2 0.00 0.00 0.00 89 1014.6
20200228143026 21 65 0.0 1.6 0.00 0.00 0.00 90 1014.5
20200228142513 20 65 0.0 1.6 0.00 0.00 0.00 92 1014.5
20200228142018 20 65 0.0 3.2 0.00 0.00 0.00 92 1014.5
20200228141536 20 65 0.0 3.2 0.00 0.00 0.00 93 1014.5
20200228141022 20 65 0.0 3.2 0.00 0.00 0.00 94 1014.4
20200228140524 20 65 1.6 3.2 0.00 0.00 0.00 94 1014.4
20200228140007 20 65 0.0 1.6 0.00 0.00 0.00 94 1014.5
20200228135508 20 65 0.0 1.6 0.00 0.00 0.00 94 1014.4
20200228135021 20 65 0.0 0.0 0.00 0.00 0.00 94 1014.4
20200228134534 20 65 0.0 1.6 0.00 0.00 0.00 95 1014.3
20200228134020 20 65 0.0 1.6 0.00 0.00 0.00 96 1014.3
20200228133520 20 65 0.0 1.6 0.00 0.00 0.00 96 1014.3
20200228133011 20 65 0.0 3.2 0.00 0.00 0.00 96 1014.2
20200228132511 20 65 0.0 3.2 0.00 0.00 0.00 96 1014.2
20200228132016 20 65 1.6 3.2 0.00 0.00 0.00 96 1014.1
20200228131519 20 63 0.0 1.6 0.00 0.00 0.00 97 1014.1
20200228131028 20 63 0.0 1.6 0.00 0.00 0.00 97 1014.1
20200228130522 19 63 0.0 3.2 0.00 0.00 0.00 97 1014.0
20200228130010 19 63 0.0 3.2 0.00 0.00 0.00 97 1014.0
20200228125510 19 63 0.0 3.2 0.00 0.00 0.00 97 1013.9
20200228125020 20 63 1.6 3.2 0.00 0.00 0.00 97 1013.9
20200228124604 20 63 0.0 1.6 0.00 0.00 0.00 97 1013.9
20200228124006 20 63 0.0 1.6 0.00 0.00 0.00 97 1013.8
20200228123505 20 63 0.0 1.6 0.00 0.00 0.00 97 1013.8
20200228123014 20 63 0.0 1.6 0.00 0.00 0.00 97 1013.8
20200228122517 20 63 0.0 3.2 0.00 0.00 0.00 97 1013.8
20200228122047 20 63 0.0 3.2 0.00 0.00 0.00 97 1013.7
20200228121540 20 63 0.0 1.6 0.00 0.00 0.00 97 1013.7
20200228121006 20 63 0.0 1.6 0.00 0.00 0.00 97 1013.6
20200228120506 20 63 0.0 1.6 0.00 0.00 0.00 97 1013.6
20200228120018 20 63 0.0 1.6 0.00 0.00 0.00 97 1013.6
20200228115514 20 63 0.0 1.6 0.00 0.00 0.00 97 1013.6
20200228115005 20 63 0.0 1.6 0.00 0.00 0.00 97 1013.6
20200228114505 20 63 0.0 1.6 0.00 0.00 0.00 97 1013.6
20200228114016 20 63 0.0 1.6 0.00 0.00 0.00 97 1013.7
20200228113513 20 63 0.0 1.6 0.00 0.00 0.00 97 1013.6
20200228113035 20 63 0.0 3.2 0.00 0.00 0.00 97 1013.6
20200228112517 20 63 0.0 3.2 0.00 0.00 0.00 97 1013.6
20200228112007 20 63 0.0 4.8 0.00 0.00 0.00 96 1013.5
20200228111526 20 63 0.0 6.4 0.00 0.00 0.00 96 1013.5
20200228111014 20 32 1.6 6.4 0.00 0.00 0.00 96 1013.5
20200228110516 20 17 1.6 6.4 0.00 0.00 0.00 95 1013.5
20200228110024 20 31 3.2 4.8 0.00 0.00 0.00 94 1013.5
20200228105517 20 45 3.2 6.4 0.00 0.00 0.00 94 1013.5
20200228105006 20 360 3.2 12.9 0.00 0.00 0.00 93 1013.5
20200228104511 20 10 4.8 12.9 0.00 0.00 0.00 92 1013.5